Kosmos-2226

operational
NORAD ID: 22282 Int'l Des: 1992-092 Owner: VTSR Country: RU
LEOCIRCULAR

About Kosmos-2226

Description loading...

Live Position

Loading 3D Globe...

Upcoming Passes

Altitude History

Altitude vs Time

uPlot chart will show altitude changes over time

Two-Line Element Set

1 22282U 92092A 26062.52929213 -.00000005 00000-0 91780-4 0 9992
2 22282 73.6206 247.2536 0029491 178.9839 242.9666 12.41303391504091
Epoch: Mar 3, 2026 • Age: 31 hours

Current Status

Altitude 1487.3 km
Velocity 7.13 km/s
Sub-Earth Point -21.14°S, 167.77°E
Launch Date Dec 22, 1992
Age 33.1 years
Type other

Technical Details

Classification Payload
Mass 1536.00 kg
Dry Mass 1536.00 kg
Total Mass 1536.00 kg
Length 5.80 m
Diameter 2.40 m
Span 17.80 m
Shape Cyl + 2 Pan + Ant
Manufacturer NPOPM
Bus Type KAUR-1 11F666
Phase Status In Orbit
Owner/State VTSR/RU

Large Constellations

Loading constellations...